This is the latest recevied weather packets stored in our database for station/object EA3RCF. If no packets are shown the sender has not sent any weather packets the latest 10 day(s).
| Time | Temp. | Humidity | Pressure | Rain* | Wind** | Luminosity | Snow |
|---|---|---|---|---|---|---|---|
| 1777931596 | 12.22° C | 94% | 1011.8 hPa | 11.94 mm | - | - | - |
| 1777931298 | 12.22° C | 94% | 1012 hPa | 12.95 mm | - | - | - |
| 1777931007 | 12.22° C | 94% | 1012.2 hPa | 12.95 mm | - | - | - |
| 1777930709 | 12.22° C | 94% | 1012.2 hPa | 13.97 mm | - | - | - |
| 1777930410 | 12.22° C | 94% | 1011.9 hPa | 14.99 mm | - | - | - |
| 1777930099 | 12.78° C | 94% | 1012 hPa | 14.99 mm | - | - | - |
| 1777929802 | 12.78° C | 94% | 1012.1 hPa | 13.97 mm | - | - | - |
| 1777929502 | 12.78° C | 94% | 1012.4 hPa | 11.94 mm | - | - | - |
| 1777929210 | 12.78° C | 94% | 1012.5 hPa | 8.89 mm | - | - | - |
| 1777928912 | 12.78° C | 94% | 1012.7 hPa | 7.11 mm | - | - | - |
| 1777928594 | 13.33° C | 94% | 1012.7 hPa | 6.1 mm | - | - | - |
| 1777928303 | 13.33° C | 94% | 1012.7 hPa | 4.06 mm | - | - | - |
| 1777928005 | 13.33° C | 94% | 1012.6 hPa | 3.05 mm | - | - | - |
| 1777927712 | 13.33° C | 94% | 1012.4 hPa | 2.03 mm | - | - | - |
| 1777927109 | 13.89° C | 94% | 1012.1 hPa | 1.02 mm | - | - | - |
| 1777926817 | 13.89° C | 94% | 1012 hPa | 0 mm | - | - | - |
| 1777926499 | 13.89° C | 94% | 1011.9 hPa | 0 mm | - | - | - |
| 1777926200 | 13.89° C | 94% | 1011.8 hPa | 0 mm | - | - | - |
| 1777925909 | 13.89° C | 94% | 1011.8 hPa | 0 mm | - | - | - |
| 1777925610 | 13.89° C | 94% | 1011.7 hPa | 0 mm | - | - | - |
| 1777925318 | 13.89° C | 94% | 1011.6 hPa | 0 mm | - | - | - |
| 1777924999 | 13.89° C | 94% | 1011.5 hPa | 0 mm | - | - | - |
| 1777924699 | 13.89° C | 94% | 1011.4 hPa | 0 mm | - | - | - |
| 1777924406 | 13.89° C | 94% | 1011.5 hPa | 0 mm | - | - | - |
| 1777924107 | 13.89° C | 94% | 1011.4 hPa | 0 mm | - | - | - |
* Rain latest hour (hover to see other rain measurements)
** Current wind speed in m/s (hover to see current wind gust speed)